This demonstration page uses our WeatherBlox Daily Observations layout. Learn more.

Left ArrowRight Arrow

Hourly Observations for March 12, 2018

Temp ( °F °C ) Dew Point ( °F °C ) Humidity (%) Winds ( mph kmh ) Pressure ( in mb ) Visibility ( mi km ) Precip ( " mm )
12:59 am 00:59 Cloudy with Light Rain 41 5 34 1.1 76 76 ENE 9 15 30.00 1016 9 14 0.01 0.25
1:59 am 01:59 Cloudy with Light Rain 41 5 35 1.7 79 79 ENE 14 22 29.97 1015 10 16 0.01 0.25
2:59 am 02:59 Cloudy with Light Rain 42 5.6 34 1.1 73 73 ENE 12 19 29.95 1014 10 16 0.00 0.03
3:59 am 03:59 Cloudy with Light Rain 42 5.6 31 -0.6 65 65 E 15 24 29.92 1013 10 16 0.00 0.03
4:59 am 04:59 Mostly Cloudy 42 5.6 32 0 68 68 ENE 15 24 29.90 1012 10 16 0.00 0.03
5:59 am 05:59 Cloudy 42 5.6 33 0.6 71 71 NE 14 22 29.89 1012 10 16 0.00 0.00
6:59 am 06:59 Cloudy with Light Rain 42 5.6 34 1.1 73 73 ENE 14 22 29.88 1012 10 16 0.00 0.03
7:59 am 07:59 Cloudy with Light Rain 42 5.6 34 1.1 73 73 ENE 16 26 29.85 1011 9 14 0.01 0.25
8:38 am 08:38 Cloudy with Light Rain 42 5.6 34 1.1 73 73 NE 16 26 29.85 1011 10 16 0.00 0.03
8:59 am 08:59 Cloudy 42 5.6 34 1.1 73 73 NE 16 26 29.85 1011 10 16 0.00 0.03
9:59 am 09:59 Cloudy 43 6.1 35 1.7 74 74 NE 17 28 29.80 1009 10 16 0.00 0.00
10:59 am 10:59 Cloudy 43 6.1 37 2.8 80 80 NE 15 24 29.80 1009 10 16 0.00 0.00
11:59 am 11:59 Cloudy with Light Rain 42 5.6 37 2.8 82 82 NE 17 28 29.78 1008 4 6 0.02 0.51
12:27 pm 12:27 Cloudy with Light Rain 42 5.6 38 3.3 85 85 NNE 17 28 29.77 1008 5 8 0.00 0.03
12:59 pm 12:59 Cloudy with Light Rain 42 5.6 38 3.3 85 85 NNE 18 30 29.74 1007 4 6 0.01 0.25
1:46 pm 13:46 Cloudy with Light Rain 41 5 38 3.3 89 89 NNE 21 33 29.71 1006 3 4 0.04 1.02
1:59 pm 13:59 Cloudy with Light Rain 42 5.6 38 3.3 85 85 NNE 22 35 29.70 1006 2 3 0.05 1.27
2:11 pm 14:11 Cloudy with Light Rain 41 5 38 3.3 89 89 N 24 39 29.71 1006 2 3 0.01 0.25
2:30 pm 14:30 Cloudy with Light Rain 41 5 38 3.3 89 89 N 23 37 29.68 1005 3 4 0.01 0.25
2:55 pm 14:55 Cloudy with Light Rain 41 5 37 3 87 87 N 22 35 29.68 1005 3 5 0.02 0.51
2:59 pm 14:59 Cloudy with Light Rain 41 5 38 3.3 89 89 NNE 25 41 29.66 1004 3 5 0.02 0.51
3:59 pm 15:59 Cloudy with Light Rain 41 5 37 2.8 86 86 N 26 43 29.63 1003 3 5 0.00 0.03
4:01 pm 16:01 Cloudy with Light Rain 41 5 37 2.8 86 86 N 29 46 29.62 1003 3 4 0.00 0.03
4:59 pm 16:59 Cloudy with Light Rain 40 4.4 37 2.8 89 89 N 24 39 29.64 1004 2 3 0.03 0.76
5:13 pm 17:13 Cloudy with Light Rain 40 4.4 36 2.2 86 86 N 22 35 29.65 1004 2 3 0.03 0.76
5:52 pm 17:52 Cloudy with Light Rain 39 3.9 36 2.2 89 89 N 28 44 29.62 1003 3 5 0.07 1.78
5:59 pm 17:59 Cloudy with Light Rain 39 3.9 36 2.2 89 89 N 22 35 29.64 1004 3 5 0.09 2.29
6:08 pm 18:08 Cloudy with Light Rain 39 3.9 35 1.7 86 86 N 23 37 29.65 1004 2 3 0.03 0.76
6:25 pm 18:25 Cloudy with Light Rain 36 2.2 33 0.6 89 89 N 20 31 29.65 1004 2 3 0.09 2.29
6:59 pm 18:59 Cloudy with Light Rain/Snow 35 1.7 32 0 89 89 N 21 33 29.65 1004 3 5 0.19 4.83
7:33 pm 19:33 Cloudy with Light Rain/Snow 34 1.1 32 0 92 92 N 18 30 29.68 1005 2 3 0.07 1.78
7:45 pm 19:45 Cloudy with Light Rain/Snow 34 1.1 31 -0.6 89 89 N 18 30 29.68 1005 2 3 0.09 2.29
7:47 pm 19:47 Cloudy with Rain/Snow 34 1.1 31 -0.6 89 89 N 16 26 29.68 1005 1 2 0.09 2.29
7:59 pm 19:59 Cloudy with Rain/Snow 34 1.1 31 -0.6 89 89 N 21 33 29.67 1005 1 2 0.13 3.30
8:14 pm 20:14 Cloudy with Rain/Snow 34 1.1 31 -0.6 89 89 NNW 18 30 29.65 1004 1 2 0.04 1.02
8:25 pm 20:25 Cloudy with Rain/Snow 33 0.6 31 -0.6 92 92 N 23 37 29.65 1004 1 1 0.10 2.54
8:34 pm 20:34 Cloudy with Rain/Snow 34 1.1 32 0 92 92 N 23 37 29.65 1004 1 2 0.14 3.56
8:42 pm 20:42 Cloudy with Rain/Snow 34 1.1 32 0 92 92 N 18 30 29.65 1004 2 2 0.16 4.06
8:46 pm 20:46 Cloudy with Rain/Snow 34 1.1 32 0 92 92 N 18 30 29.65 1004 2 3 0.17 4.32
8:59 pm 20:59 Cloudy with Rain/Snow 34 1.1 32 0 92 92 N 16 26 29.65 1004 3 4 0.18 4.57
9:08 pm 21:08 Cloudy with Rain/Snow 34 1.1 32 0 92 92 NNW 23 37 29.65 1004 3 5 0.01 0.25
9:54 pm 21:54 Cloudy with Light Rain/Snow 36 2 34 1 93 93 NNW 24 39 29.65 1004 8 13 0.02 0.51
9:59 pm 21:59 Cloudy with Light Rain/Snow 36 2.2 33 0.6 89 89 NNW 28 44 29.66 1004 9 14 0.02 0.51
10:08 pm 22:08 Cloudy 36 2.2 33 0.6 89 89 NNW 29 46 29.65 1004 9 14 0.00 0.03
10:59 pm 22:59 Cloudy 37 2.8 32 0 82 82 NNW 30 48 29.66 1004 8 13 0.00 0.03
11:59 pm 23:59 Cloudy with Haze 37 2.8 32 0 82 82 NNW 29 46 29.68 1005 6 10 0.00 0.00

Powered by AerisWeather